Flag for India Weather past 2 weeks in Guntur, Andhra Pradesh, India

84 °F

Broken clouds.

Feels Like: 96 °F
Forecast: 75 / 81 °F
Wind: 8 mph from North

Location: Madras / Minambakkam

Current Time: Nov 30, 2015 at 11:53:05 AM

Latest Report: Nov 30, 2015 at 11:00 AM

Visibility: 4 mi

Pressure: 29.95 "Hg

Humidity: 84%

Dew point: 79 °F

Location of GunturLocation

Historic Weather in Guntur — Graph


Guntur temperature yesterday

Maximum temperature yesterday: 88 °F (at 11:30 AM)
Minimum temperature yesterday: 77 °F (at 6:00 PM)
Average temperature yesterday: 81 °F

Past Weeks' High & Low Weather Summary

High88 °F (Nov 20, 1:00 PM)100% (Nov 15, 10:30 AM)29.98 "Hg (Nov 15, 10:30 AM)
Low73 °F (Nov 17, 6:00 AM)55% (Nov 25, 12:30 PM)29.65 "Hg (Nov 16, 2:30 PM)
Average80 °F88%29.84 "Hg
* Reported Nov 15 10:30 AM — Nov 30 10:30 AM, Guntur, Weather by CustomWeather, © 2015

Note: Actual official high and low records may vary slightly from our data, if they occured in-between our weather recording intervals... More about our weather records


Guntur weather history for previous 24 hours

Time TempWeatherWind HumidityBarometerVisibility
10:30 AM
Mon, Nov 30
82 °FBroken clouds.7 mph84%29.98 "Hg4 mi
10:00 AM82 °FBroken clouds.8 mph84%29.98 "Hg4 mi
9:00 AM79 °FFog.8 mph94%29.98 "Hg3 mi
8:30 AM77 °FFog.6 mph94%29.98 "Hg3 mi
8:00 AM77 °FDrizzle. Broken clouds.6 mph94%29.98 "Hg2 mi
7:30 AM77 °FThunderstorms. Broken clouds.3 mph89%29.98 "Hg2 mi
6:30 AM75 °FThunderstorms. Partly cloudy.No wind100%29.95 "Hg2 mi
6:00 AM75 °FThunderstorms. Partly cloudy.3 mph100%29.95 "Hg2 mi
5:30 AM75 °FThunderstorms. Partly cloudy.3 mph100%29.92 "Hg2 mi
5:00 AM79 °FThunderstorms. Partly cloudy.3 mph94%29.92 "Hg2 mi
4:30 AM79 °FFog.No wind94%29.92 "Hg3 mi
4:00 AM79 °FFog.No wind94%29.92 "Hg3 mi
3:30 AM79 °FPartly cloudy.3 mph94%29.89 "Hg3 mi
3:00 AM79 °FPartly cloudy.3 mph94%29.89 "Hg3 mi
2:30 AM79 °FPartly cloudy.5 mph94%29.89 "Hg3 mi
2:00 AM79 °FFog.2 mph94%29.89 "Hg3 mi
1:30 AM79 °FFog.No wind94%29.92 "Hg3 mi
1:00 AM79 °FFog.No wind94%29.92 "Hg3 mi
12:30 AM79 °FFog.No wind94%29.92 "Hg3 mi
12:00 AM79 °FFog.No wind94%29.92 "Hg3 mi
11:30 PM
Sun, Nov 29
79 °FFog.No wind94%29.95 "Hg3 mi
11:00 PM79 °FFog.3 mph94%29.95 "Hg2 mi
10:30 PM79 °FFog.No wind94%29.95 "Hg2 mi
10:00 PM77 °FPartly cloudy.No wind94%29.95 "Hg2 mi
9:30 PM77 °FRain. Partly cloudy.9 mph100%29.95 "Hg2 mi
9:00 PM79 °FFog.No wind94%29.95 "Hg2 mi
8:30 PM79 °FFog.No wind94%29.95 "Hg2 mi
8:00 PM77 °FFog.3 mph94%29.92 "Hg2 mi
7:30 PM77 °FFog.5 mph94%29.92 "Hg2 mi
7:00 PM77 °FFog.No wind94%29.89 "Hg2 mi
6:30 PM77 °FFog.3 mph94%29.89 "Hg2 mi
6:00 PM77 °FDrizzle. Broken clouds.6 mph89%29.89 "Hg1 mi
5:30 PM82 °FFog.10 mph89%29.86 "Hg2 mi
5:00 PM82 °FFog.5 mph89%29.86 "Hg2 mi
4:30 PM82 °FLight rain. Broken clouds.8 mph89%29.86 "Hg2 mi
4:00 PM84 °FFog.9 mph84%29.86 "Hg3 mi
3:30 PM86 °FBroken clouds.9 mph75%29.86 "Hg4 mi
3:00 PM86 °FBroken clouds.7 mph79%29.86 "Hg4 mi
2:30 PM86 °FBroken clouds.9 mph75%29.86 "Hg4 mi
2:00 PM86 °FBroken clouds.10 mph75%29.86 "Hg4 mi
1:30 PM84 °FBroken clouds.10 mph79%29.86 "Hg4 mi
12:00 PM86 °FBroken clouds.15 mph75%29.92 "Hg2 mi
11:30 AM88 °FBroken clouds.16 mph70%29.92 "Hg2 mi
Weather by CustomWeather, © 2015

See weather overviewHow to use our weather pages